Regional Weather Roundup
Issued by NWS

Home | Current Version | Previous Version | Text Only | Print | Product List | Glossary Off
Versions: 1 2 3 4 5 6 7 8 9 10 11 12 13 14 15 16 17 18 19 20 21 22 23 24 25 26 27 28 29 30 31 32 33 34 35 36 37 38 39 40 41 42 43 44 45 46 47 48 49 50

000
ASUS43 KMKX 231220
RWRWI

WISCONSIN REGIONAL WEATHER ROUNDUP
NATIONAL WEATHER SERVICE MILWAUKEE/SULLIVAN WI
700 AM CDT WED JUL 23 2014

NOTE: "FAIR" INDICATES FEW OR NO CLOUDS BELOW 12,000 FEET WITH NO
SIGNIFICANT WEATHER AND/OR OBSTRUCTIONS TO VISIBILITY.

WIZ001-002-006>008-014>016-023>028-231300-
NORTHWEST WISCONSIN

CITY           SKY/WX    TMP DP  RH WIND       PRES   REMARKS
SUPERIOR ARPT  FAIR      55  55  99 CALM      30.24R
6HR MIN TEMP:  49; 6HR MAX TEMP:  55;

ASHLAND        FAIR      54  53  97 CALM      30.24R
6HR MIN TEMP:  52; 6HR MAX TEMP:  57;

HAYWARD        FAIR      52  52 100 CALM      30.24R FOG
6HR MIN TEMP:  50; 6HR MAX TEMP:  56;

SIREN          FAIR      55  54  94 CALM      30.25R
6HR MIN TEMP:  50; 6HR MAX TEMP:  61;

RICE LAKE      FAIR      57  55  95 CALM      30.24S FOG
6HR MIN TEMP:  51; 6HR MAX TEMP:  61;

LADYSMITH      FAIR      59  57  96 CALM      30.24R
6HR MIN TEMP:  54; 6HR MAX TEMP:  60;

EAU CLAIRE     FAIR      60  60 100 CALM      30.21R
6HR MIN TEMP:  55; 6HR MAX TEMP:  64;

MENOMONIE      FAIR      61  60  94 CALM      30.23R
6HR MIN TEMP:  58; 6HR MAX TEMP:  65;

NEW RICHMOND   FAIR      58  57  99 CALM      30.25R
6HR MIN TEMP:  55; 6HR MAX TEMP:  62;

OSCEOLA        FAIR      56  56 100 CALM      30.28R
6HR MIN TEMP:  53; 6HR MAX TEMP:  64;

$$

WIZ003>005-009-010-017-018-231300-
NORTH CENTRAL WISCONSIN

CITY           SKY/WX    TMP DP  RH WIND       PRES   REMARKS
WOODRUFF       FAIR      57  54  90 CALM      30.23R
6HR MIN TEMP:  49; 6HR MAX TEMP:  57;

RHINELANDER    FAIR      56  54  93 CALM      30.23R
6HR MIN TEMP:  48; 6HR MAX TEMP:  57;

EAGLE RIVER    FAIR      52  52 100 CALM      30.22S
6HR MIN TEMP:  46; 6HR MAX TEMP:  52;

LAND O LAKES   FAIR      54  54 100 CALM      30.24R
6HR MIN TEMP:  47; 6HR MAX TEMP:  54;

PHILLIPS       FAIR      55  54  97 CALM      30.23S
6HR MIN TEMP:  51; 6HR MAX TEMP:  57;

TOMAHAWK       FOG       51  50  97 CALM      30.24R VSB<1/4
6HR MIN TEMP:  46; 6HR MAX TEMP:  56;

MEDFORD        FAIR      55  55 100 CALM      30.23R
6HR MIN TEMP:  50; 6HR MAX TEMP:  58;

MERRILL        FAIR      53  53 100 CALM      30.22S
6HR MIN TEMP:  48; 6HR MAX TEMP:  56;

$$

WIZ029-030-035-036-043>047-231300-
CENTRAL WISCONSIN

CITY           SKY/WX    TMP DP  RH WIND       PRES   REMARKS
WAUSAU         FAIR      59  57  93 N3        30.21R
6HR MIN TEMP:  57; 6HR MAX TEMP:  62;

MOSINEE        SUNNY     57  57 100 N7        30.23R
MARSHFIELD     FAIR      62  57  83 VRB3      30.22R
6HR MIN TEMP:  55; 6HR MAX TEMP:  63;

STEVENS POINT  FAIR      56  55  95 CALM      30.22R
6HR MIN TEMP:  51; 6HR MAX TEMP:  60;

WAUPACA        FAIR      59  58  94 N5        30.21R
6HR MIN TEMP:  56; 6HR MAX TEMP:  65;

WAUTOMA        FAIR      60  57  89 CALM      30.20R
6HR MIN TEMP:  53; 6HR MAX TEMP:  66;

WISC RAPIDS    FAIR      61  58  90 N7        30.22R
6HR MIN TEMP:  54; 6HR MAX TEMP:  65;

CAMP DOUGLAS   MOSUNNY   55  55 100 W3        30.20S
$$

WIZ011>013-019>022-031-037>040-048>050-231300-
NORTHEAST WISCONSIN

CITY           SKY/WX    TMP DP  RH WIND       PRES   REMARKS
ANTIGO         FAIR      55  54  99 N3        30.22R
6HR MIN TEMP:  49; 6HR MAX TEMP:  55;

STURGEON BAY   FAIR      61  52  72 N17       30.18R
6HR MIN TEMP:  59; 6HR MAX TEMP:  64;

GREEN BAY      FAIR      61  56  83 N9        30.18R
6HR MIN TEMP:  57; 6HR MAX TEMP:  62;

MANITOWOC      FAIR      61  57  87 N7        30.17R
6HR MIN TEMP:  59; 6HR MAX TEMP:  64;

APPLETON       MOSUNNY   59  55  88 N7        30.18R
CLINTONVILLE   FAIR      59  54  82 N5        30.20R
OSHKOSH        FAIR      62  56  80 N10       30.18R
6HR MIN TEMP:  60; 6HR MAX TEMP:  67;

$$

WIZ032>034-041-042-053>061-231300-
SOUTHWEST WISCONSIN

CITY           SKY/WX    TMP DP  RH WIND       PRES   REMARKS
LA CROSSE      FAIR      66  61  84 N3        30.20S
6HR MIN TEMP:  61; 6HR MAX TEMP:  72;

SPARTA         FAIR      55  54  94 CALM      30.21S
6HR MIN TEMP:  52; 6HR MAX TEMP:  67;

VIROQUA        FAIR      59  59 100 CALM      30.20F
6HR MIN TEMP:  57; 6HR MAX TEMP:  67;

BOSCOBEL       FAIR      62  58  86 CALM      30.19S
6HR MIN TEMP:  58; 6HR MAX TEMP:  70;

PRAIRIE DU CHI FAIR      64  57  79 CALM      30.17F
6HR MIN TEMP:  61; 6HR MAX TEMP:  71;

PLATTEVILLE    FAIR      62  60  92 N5        30.19S
6HR MIN TEMP:  59; 6HR MAX TEMP:  68;

$$

WIZ056-057-062-063-064-067-068-231300-
SOUTH CENTRAL WISCONSIN

CITY           SKY/WX    TMP DP  RH WIND       PRES   REMARKS
BARABOO/DELLS  FAIR      61  56  85 CALM      30.20R
6HR MIN TEMP:  58; 6HR MAX TEMP:  67;

LONE ROCK      FAIR      66  59  78 CALM      30.18S
6HR MIN TEMP:  64; 6HR MAX TEMP:  74;

WATERTOWN      FAIR      62  57  86 N5        30.17R
6HR MIN TEMP:  59; 6HR MAX TEMP:  69;

MADISON        FAIR      62  56  80 N7        30.18R
6HR MIN TEMP:  59; 6HR MAX TEMP:  71;

MIDDLETON      FAIR      63  58  83 N5        30.19R
6HR MIN TEMP:  60; 6HR MAX TEMP:  71;

MONROE         FAIR      63  59  88 N7        30.18R
JANESVILLE     SUNNY     66  59  77 NE6       30.15R
$$

WIZ051-052-058>065-066-070>072-231300-
SOUTHEAST WISCONSIN

CITY           SKY/WX    TMP DP  RH WIND       PRES   REMARKS
MILWAUKEE      FAIR      62  54  74 N13G22    30.15R
6HR MIN TEMP:  60; 6HR MAX TEMP:  63;

WAUKESHA       SUNNY     61  55  82 N12       30.18R
MILWAUKEE/TIMM FAIR      61  52  72 N5        30.17R
RACINE         FAIR      61  55  81 N15       30.15R
6HR MIN TEMP:  59; 6HR MAX TEMP:  66;

BURLINGTON     FAIR      59  55  87 N7        30.15S
6HR MIN TEMP:  57; 6HR MAX TEMP:  66;

KENOSHA        FAIR      62  55  77 N10G22    30.14R
6HR MIN TEMP:  60; 6HR MAX TEMP:  67;

FOND DU LAC    FAIR      61  56  83 NW7       30.18R
6HR MIN TEMP:  60; 6HR MAX TEMP:  68;

SHEBOYGAN      FAIR      61  56  83 NW5       30.17R
6HR MIN TEMP:  56; 6HR MAX TEMP:  62;

WEST BEND      FAIR      59  54  82 N3        30.17S
JUNEAU         FAIR      60  55  84 N8        30.19R
6HR MIN TEMP:  57; 6HR MAX TEMP:  67;

$$

LSZ147-162-231300-
LAKE SUPERIOR

STATION/POSITION TIME  TEMP    WIND        PRES    WAVE
                       AIR SEA DIR/SP/G            HT/PER
                 (UTC) (F)     (DEG/KT/KT) (MB)    (FT/S)
$$

LMZ867-665-643>646-231300-
LAKE MICHIGAN

STATION/POSITION TIME  TEMP    WIND        PRES    WAVE
                       AIR SEA DIR/SP/G            HT/PER
                 (UTC) (F)     (DEG/KT/KT) (MB)    (FT/S)
$$

TC  - TEMPERATURE IN CELSIUS
VSB - VISIBILITY IN STATUTE MILES
WCI - WIND CHILL INDEX
HX  - HEAT INDEX



USA.gov is the U.S. government's official web portal to all federal, state and local government web resources and services.